IRIDIUM 106 1 41917U 17003A 26149.81613641 .00000015 00000+0 -18198-5 0 9993 2 41917 86.3955 96.2358 0002035 77.3331 282.8092 14.34217757490574 IRIDIUM 103 1 41918U 17003B 26149.80345291 -.00000010 00000+0 -10479-4 0 9995 2 41918 86.3955 96.1410 0002430 83.1219 277.0253 14.34217353490591 IRIDIUM 109 1 41919U 17003C 26149.80979463 .00000102 00000+0 29536-4 0 9994 2 41919 86.3957 96.1973 0002347 85.7411 274.4053 14.34217865490561 IRIDIUM 102 1 41920U 17003D 26149.84784927 .00000128 00000+0 38821-4 0 9994 2 41920 86.3955 96.1052 0002247 86.4891 273.6562 14.34217347490659 IRIDIUM 105 1 41921U 17003E 26149.80648681 .00000319 00000+0 10683-3 0 9994 2 41921 86.3974 64.5537 0002439 88.8011 271.3464 14.34220929492503 IRIDIUM 104 1 41922U 17003F 26149.86053533 .00000122 00000+0 36536-4 0 9995 2 41922 86.3956 96.1423 0002584 87.5529 272.5962 14.34217618490640 IRIDIUM 114 1 41923U 17003G 26149.79710891 .00000141 00000+0 43374-4 0 9994 2 41923 86.3954 96.1520 0002456 86.5163 273.6314 14.34217355490616 IRIDIUM 108 1 41924U 17003H 26150.17424169 .00000058 00000+0 13679-4 0 9991 2 41924 86.3968 64.2910 0002165 86.0184 274.1260 14.34217876492522 IRIDIUM 112 1 41925U 17003J 26149.78442425 .00000133 00000+0 40480-4 0 9996 2 41925 86.3951 96.0002 0002370 87.5896 272.5571 14.34217637490636 IRIDIUM 111 1 41926U 17003K 26149.84150719 .00000211 00000+0 68383-4 0 9995 2 41926 86.3954 96.0466 0002306 84.4623 275.6836 14.34218651490621 IRIDIUM 113 1 42803U 17039A 26149.96101005 .00000082 00000+0 22065-4 0 9999 2 42803 86.3962 329.8006 0002336 91.0597 269.0867 14.34218208468577 IRIDIUM 123 1 42804U 17039B 26150.00248529 .00000343 00000+0 11539-3 0 9993 2 42804 86.3980 1.2400 0002210 83.1461 276.9986 14.34217348467347 IRIDIUM 120 1 42805U 17039C 26150.02444161 .00000084 00000+0 22790-4 0 9990 2 42805 86.3950 329.5589 0002014 89.1659 270.9767 14.34219434468571 IRIDIUM 115 1 42806U 17039D 26150.02322332 .00000151 00000+0 38759-4 0 9993 2 42806 86.4488 329.6858 0002134 84.6163 275.5281 14.43278602471648 IRIDIUM 118 1 42807U 17039E 26150.10396896 .00000020 00000+0 58254-7 0 9999 2 42807 86.3976 1.1957 0002111 86.8467 273.2970 14.34217687467357 IRIDIUM 117 1 42808U 17039F 26150.05322850 -.00000001 00000+0 -75856-5 0 9999 2 42808 86.3977 1.1748 0002135 84.3039 275.8400 14.34217511467375 IRIDIUM 126 1 42809U 17039G 26150.00883065 .00000058 00000+0 13655-4 0 9993 2 42809 86.3980 1.2445 0002291 86.1581 273.9877 14.34217493467343 IRIDIUM 124 1 42810U 17039H 26149.81837498 -.00000011 00000+0 -91593-5 0 9990 2 42810 86.4465 298.0425 0002032 90.6240 269.5194 14.43281373472463 IRIDIUM 128 1 42811U 17039J 26150.06933630 .00000028 00000+0 30174-5 0 9999 2 42811 86.3980 32.7240 0001907 81.3572 278.7840 14.34217762467384 IRIDIUM 121 1 42812U 17039K 26150.02785894 .00000277 00000+0 91983-4 0 9993 2 42812 86.3986 1.2643 0002144 86.7516 273.3925 14.34218445467227 IRIDIUM 133 1 42955U 17061A 26150.10104041 .00000281 00000+0 93362-4 0 9992 2 42955 86.3987 32.8284 0002179 83.9945 276.1499 14.34221373452180 IRIDIUM 100 1 42956U 17061B 26149.74586443 .00000064 00000+0 15721-4 0 9993 2 42956 86.3986 32.8957 0002194 85.3967 274.7479 14.34217174452135 IRIDIUM 122 1 42957U 17061C 26150.06299441 .00000101 00000+0 28991-4 0 9995 2 42957 86.3985 32.7635 0002245 83.4999 276.6452 14.34218087452189 IRIDIUM 129 1 42958U 17061D 26149.73951710 .00000201 00000+0 64723-4 0 9996 2 42958 86.3988 32.9655 0002336 90.0811 270.0652 14.34216285452150 IRIDIUM 119 1 42959U 17061E 26149.70780783 .00000249 00000+0 81719-4 0 9990 2 42959 86.3987 32.9745 0002327 84.7519 275.3943 14.34219237452167 IRIDIUM 107 1 42960U 17061F 26150.14544808 -.00000031 00000+0 -18081-4 0 9991 2 42960 86.3982 32.8124 0002088 77.2879 282.8550 14.34217234452234 IRIDIUM 132 1 42961U 17061G 26150.08202112 .00000051 00000+0 11013-4 0 9992 2 42961 86.3986 32.8188 0002283 85.6359 274.5098 14.34216569452226 IRIDIUM 136 1 42962U 17061H 26150.11373506 .00000067 00000+0 16965-4 0 9991 2 42962 86.3988 32.8122 0002250 84.1879 275.9573 14.34217496452247 IRIDIUM 139 1 42963U 17061J 26150.12007759 -.00000039 00000+0 -20859-4 0 9995 2 42963 86.3984 32.8709 0001957 82.5163 277.6255 14.34217171452253 IRIDIUM 125 1 42964U 17061K 26150.10739359 .00000060 00000+0 14473-4 0 9999 2 42964 86.3988 32.9371 0002645 79.4995 280.6499 14.34217780452268 IRIDIUM 135 1 43070U 17083A 26150.01175100 .00000090 00000+0 25204-4 0 9997 2 43070 86.3956 329.6172 0002167 89.9155 270.2289 14.34217856441545 IRIDIUM 138 1 43071U 17083B 26150.03712044 .00000096 00000+0 27053-4 0 9994 2 43071 86.3969 329.2994 0002441 90.3238 269.8237 14.34218496441538 IRIDIUM 116 1 43072U 17083C 26150.00540610 .00000037 00000+0 60581-5 0 9999 2 43072 86.3954 329.6061 0001851 86.9877 273.1531 14.34217955441563 IRIDIUM 130 1 43073U 17083D 26149.90392635 -.00000125 00000+0 -51740-4 0 9995 2 43073 86.3961 329.9220 0001931 83.2180 276.9235 14.34216019441492 IRIDIUM 151 1 43074U 17083E 26150.01809174 -.00000010 00000+0 -10713-4 0 9999 2 43074 86.3956 329.6581 0002012 90.2666 269.8761 14.34217168441538 IRIDIUM 134 1 43075U 17083F 26149.91661176 .00000051 00000+0 11099-4 0 9996 2 43075 86.3959 329.7083 0002138 88.0154 272.1287 14.34217063441484 IRIDIUM 137 1 43076U 17083G 26149.99906272 .00000083 00000+0 22531-4 0 9992 2 43076 86.3960 329.7663 0001783 97.9168 262.2230 14.34217650441569 IRIDIUM 141 1 43077U 17083H 26149.57411047 .00000015 00000+0 -15539-5 0 9995 2 43077 86.3953 329.7758 0002119 90.1726 269.9713 14.34217705441501 IRIDIUM 153 1 43078U 17083J 26149.87513253 .00000104 00000+0 30217-4 0 9998 2 43078 86.3944 298.1298 0002372 91.2703 268.8764 14.34217870442652 IRIDIUM 131 1 43079U 17083K 26150.04980623 -.00000016 00000+0 -12791-4 0 9990 2 43079 86.3960 329.7615 0002050 91.2136 268.9295 14.34217108441505 IRIDIUM 144 1 43249U 18030A 26149.88147415 .00000115 00000+0 34126-4 0 9990 2 43249 86.3941 298.0565 0002064 91.8448 268.2984 14.34218011427519 IRIDIUM 149 1 43250U 18030B 26149.81804855 .00000005 00000+0 -54030-5 0 9999 2 43250 86.3940 298.0507 0002112 93.6906 266.4531 14.34217533427526 IRIDIUM 157 1 43251U 18030C 26149.76730778 .00000022 00000+0 86956-6 0 9997 2 43251 86.3943 298.1245 0002161 92.1806 267.9637 14.34217715427498 IRIDIUM 140 1 43252U 18030D 26149.78633545 .00000008 00000+0 -42980-5 0 9997 2 43252 86.3942 298.1293 0002031 91.4797 268.6631 14.34217533427555 IRIDIUM 145 1 43253U 18030E 26149.84341821 -.00000007 00000+0 -96339-5 0 9995 2 43253 86.3941 298.0777 0001745 91.4467 268.6929 14.34217594427496 IRIDIUM 146 1 43254U 18030F 26149.47554818 .00000072 00000+0 18585-4 0 9993 2 43254 86.3942 298.2437 0002041 91.8079 268.3351 14.34217959427453 IRIDIUM 148 1 43255U 18030G 26149.86244565 .00000281 00000+0 93374-4 0 9993 2 43255 86.3941 298.1250 0001977 95.6183 264.5239 14.34218426427543 IRIDIUM 142 1 43256U 18030H 26149.83073246 .00000344 00000+0 11565-3 0 9998 2 43256 86.3941 298.0276 0001960 91.1894 268.9526 14.34219562427508 IRIDIUM 150 1 43257U 18030J 26149.86878906 .00000016 00000+0 -14618-5 0 9999 2 43257 86.3942 298.1275 0002040 91.2810 268.8620 14.34217626427535 IRIDIUM 143 1 43258U 18030K 26149.84976098 .00000071 00000+0 18454-4 0 9990 2 43258 86.3948 298.2272 0002041 91.3188 268.8242 14.34217892427467 IRIDIUM 161 1 43478U 18047C 26149.79632246 .00000328 00000+0 91572-4 0 9997 2 43478 86.4475 96.1601 0002437 90.4509 269.6972 14.43278368422485 IRIDIUM 152 1 43479U 18047D 26149.40386888 .00000009 00000+0 -39943-5 0 9996 2 43479 86.3950 96.1853 0002265 86.3280 273.8175 14.34217564419794 IRIDIUM 147 1 43480U 18047E 26149.82881921 .00000195 00000+0 62741-4 0 9998 2 43480 86.3953 96.0122 0002162 84.6144 275.5298 14.34219458419859 IRIDIUM 110 1 43481U 18047F 26149.34678619 -.00000013 00000+0 -11579-4 0 9998 2 43481 86.3954 96.3054 0002410 91.1820 268.9652 14.34217445419773 IRIDIUM 162 1 43482U 18047G 26149.79001428 .00000355 00000+0 99393-4 0 9993 2 43482 86.4475 96.0540 0002428 83.5764 276.5713 14.43282862422470 IRIDIUM 160 1 43569U 18061A 26149.78099984 .00000135 00000+0 40967-4 0 9997 2 43569 86.3972 64.4920 0002236 87.1754 272.9698 14.34218640410735 IRIDIUM 166 1 43570U 18061B 26149.80637122 .00000024 00000+0 14856-5 0 9990 2 43570 86.3971 64.4321 0002105 83.1078 277.0357 14.34217636410766 IRIDIUM 158 1 43571U 18061C 26149.77465292 .00000198 00000+0 63570-4 0 9992 2 43571 86.3971 64.4553 0002322 83.1901 276.9559 14.34216661410725 IRIDIUM 165 1 43572U 18061D 26150.14887059 .00000005 00000+0 -52994-5 0 9992 2 43572 86.3969 64.3449 0001971 83.0637 277.0783 14.34217562410801 IRIDIUM 155 1 43573U 18061E 26150.18058427 .00000121 00000+0 36126-4 0 9992 2 43573 86.3969 64.2016 0002279 81.6404 278.5050 14.34217358410771 IRIDIUM 154 1 43574U 18061F 26149.74294234 .00000142 00000+0 43679-4 0 9995 2 43574 86.3973 64.5172 0002067 84.2156 275.9275 14.34216693410761 IRIDIUM 163 1 43575U 18061G 26149.79368628 .00000027 00000+0 25352-5 0 9991 2 43575 86.3969 64.4118 0002340 84.9244 275.2219 14.34217758410747 IRIDIUM 156 1 43576U 18061H 26150.18692713 -.00000017 00000+0 -13237-4 0 9991 2 43576 86.3967 64.2547 0002075 78.9944 281.1485 14.34217249410796 IRIDIUM 164 1 43577U 18061J 26150.16789860 .00000211 00000+0 68145-4 0 9992 2 43577 86.3971 64.3029 0001989 85.0146 275.1276 14.34219819410835 IRIDIUM 159 1 43578U 18061K 26149.78734306 -.00000007 00000+0 -93938-5 0 9998 2 43578 86.3965 64.3991 0002191 86.3212 273.8234 14.34217570410742 IRIDIUM 180 1 43922U 19002A 26150.06591370 -.00000016 00000+0 -12926-4 0 9999 2 43922 86.3976 1.1741 0002094 88.8980 271.2456 14.34217335386390 IRIDIUM 176 1 43923U 19002B 26150.01161230 .00000907 00000+0 13995-3 0 9996 2 43923 86.6098 1.1432 0002230 88.6144 271.5328 14.72259417396579 IRIDIUM 168 1 43924U 19002C 26150.05957082 .00000043 00000+0 81693-5 0 9992 2 43924 86.3982 1.2536 0002153 87.8907 272.2535 14.34217916386378 IRIDIUM 173 1 43925U 19002D 26150.04688597 .00000036 00000+0 59662-5 0 9997 2 43925 86.3978 1.1486 0002252 86.0134 274.1319 14.34217796386355 IRIDIUM 169 1 43926U 19002E 26150.09818622 .00000160 00000+0 45750-4 0 9997 2 43926 86.4242 32.7548 0002499 72.7858 287.3613 14.38607383387621 IRIDIUM 172 1 43927U 19002F 26150.04054296 .00000100 00000+0 28474-4 0 9990 2 43927 86.3978 1.1592 0002233 89.0405 271.1046 14.34217543386363 IRIDIUM 175 1 43928U 19002G 26149.76870374 .00000400 00000+0 11207-3 0 9999 2 43928 86.4496 298.2228 0001146 308.5079 51.6019 14.43601302396321 IRIDIUM 171 1 43929U 19002H 26150.02151503 .00000159 00000+0 49773-4 0 9998 2 43929 86.3987 1.4711 0002062 84.5082 275.6349 14.34217838386353 IRIDIUM 170 1 43930U 19002J 26150.01779102 .00000525 00000+0 79420-4 0 9999 2 43930 86.6098 1.1432 0002397 90.2467 269.9025 14.72251147396586 IRIDIUM 167 1 43931U 19002K 26150.01517199 -.00000009 00000+0 -10263-4 0 9995 2 43931 86.3974 1.1916 0001856 79.4120 280.7285 14.34217485386356 IRIDIUM 181 1 56726U 23068S 26149.80349611 .00000318 00000+0 88496-4 0 9999 2 56726 86.4508 64.4738 0002205 90.5155 269.6299 14.43310564159789 IRIDIUM 177 1 56727U 23068T 26150.07009786 .00000530 00000+0 66206-4 0 9998 2 56727 86.1957 337.3988 0002480 87.4669 272.6836 14.80225341163688 IRIDIUM 174 1 56728U 23068U 26150.00542507 .00000943 00000+0 14565-3 0 9993 2 56728 86.6107 1.2938 0002636 87.2960 272.8558 14.72247369163349 IRIDIUM 178 1 56729U 23068V 26149.72123894 .00000752 00000+0 95474-4 0 9992 2 56729 86.6556 33.0766 0002431 89.1102 271.0398 14.80229339163633 IRIDIUM 179 1 56730U 23068W 26150.12148227 .00001248 00000+0 16087-3 0 9990 2 56730 86.6794 41.8352 0002377 84.8693 275.2800 14.80228060163693